Skip Page Navigation
NASA JPL Caltech
NASA Logo - Jet Propulsion Laboratory + View the NASA Portal
+ Near-Earth Object (NEO) Program
Search JPL
JPL Home Earth Solar System Stars & Galaxies Technology
JPL Solar System Dynamics
BODIES ORBITS EPHEMERIDES TOOLS PHYSICAL DATA DISCOVERY FAQ SITE MAP
JPL Small-Body Database Browser
Search: [ help ]  
33330 Bareges (1998 SW)
Classification: Mars-crossing Asteroid          SPK-ID: 2033330
Ephemeris | Orbit Diagram | Orbital Elements | Physical Parameters | Discovery Circumstances | Close-Approach Data ]

[ show orbit diagram ]
Orbital Elements at Epoch 2457000.5 (2014-Dec-09.0) TDB
Reference: JPL 10 (heliocentric ecliptic J2000)
 Element Value Uncertainty (1-sigma)   Units 
e .237049825410565 6.6593e-08  
a 2.181569985065459 9.0699e-09 AU
q 1.664429200984763 1.4412e-07 AU
i 1.155937702036875 5.8073e-06 deg
node 45.60867924137818 0.0002968 deg
peri 287.1368863245661 0.00029697 deg
M 37.11691119148298 1.0346e-05 deg
tp 2456879.155113849681
(2014-Aug-09.65511385)
3.3866e-05 JED
period 1176.934114715314
3.22
7.3397e-06
2.01e-08
d
yr
n .3058794842454538 1.9075e-09 deg/d
Q 2.698710769146155 1.122e-08 AU
  Orbit Determination Parameters
   # obs. used (total)      442  
   data-arc span      10692 days (29.27 yr)  
   first obs. used      1985-09-15  
   last obs. used      2014-12-24  
   planetary ephem.      DE431  
   SB-pert. ephem.      SB431-BIG16  
   condition code      0  
   fit RMS      .50778  
   data source      ORB  
   producer      Otto Matic  
   solution date      2015-Jan-08 03:30:17  

Additional Information
 Earth MOID = .655169 AU 
 T_jup = 3.643 
[ show covariance matrix ]

Ephemeris | Orbit Diagram | Orbital Elements | Physical Parameters | Discovery Circumstances | Close-Approach Data ]

Physical Parameter Table
Parameter Symbol Value Units Sigma Reference Notes
absolute magnitude H 16.9 mag n/a MPO319492  

33330 Barèges           Discovered 1998 Sept. 16 by the OCA-DLR Asteroid Survey at Caussols.
Barèges is a small mountain village situated at the foot of the Pic du Midi, site of the well-known observatory. Historically known for its spa waters, it is also the base for the largest skiing area in the French Pyrenees.
NOTE: some special characters may not display properly (any characters within {} are an attempt to place the proper accent above a character)
Reference: 20020921/MPCPages.arcLast Updated: 2003-10-02

[ show close-approach data ]
Alternate Designations
 1998 SW = 1985 RZ5 = 2001 QA36 
Ephemeris | Orbit Diagram | Orbital Elements | Physical Parameters | Discovery Circumstances | Close-Approach Data ]
ABOUT SSD CREDITS/AWARDS PRIVACY/COPYRIGHT GLOSSARY LINKS
FirstGov 2015-Jan-30 00:26 UT
(server date/time)  
NASA Home Page
Site Manager:   Donald K. Yeomans
Webmaster  Alan B. Chamberlin